Weather History for West Plains, MO

Change the Weather History Date:

Friday, February 15, 2013

  Actual Average Record
Temperature  
Mean Temperature 35 °F 38 °F  
Max Temperature 44 °F 49 °F 75 °F (2005)
Min Temperature 25 °F 26 °F 6 °F (1958)
Degree Days  
Heating Degree Days 30 27  
Month to date heating degree days 368 432  
Since 1 July heating degree days 2914 3136  
Cooling Degree Days 0 0  
Month to date cooling degree days 0 0  
Year to date cooling degree days 0 0  
Moisture  
Dew Point 19 °F    
Average Humidity 49    
Maximum Humidity 70    
Minimum Humidity 28    
Precipitation  
Precipitation 0.00 in 0.09 in 1.52 in (1954)
Month to date precipitation 1.51 1.50  
Year to date precipitation 4.89 4.22  
Sea Level Pressure  
Sea Level Pressure 30.22 in    
Wind  
Wind Speed 9 mph (NW)    
Max Wind Speed 16 mph    
Max Gust Speed 23 mph    
Visibility 10 miles    
Events      
T = Trace of Precipitation, MM = Missing Value Source: NWS Daily Summary

Daily Weather History Graph

Daily Weather History Graph

Search for Another Location

Airport:

Trip Planner

Search our weather history database for the weather conditions in past years. The results will help you decide how hot, cold, wet, or windy it might be!

Date:

Astronomy

Feb. 15, 2013 Rise Set
Actual Time 6:55 AM CST 5:48 PM CST
Civil Twilight 6:29 AM CST 6:14 PM CST
Nautical Twilight 5:58 AM CST 6:45 PM CST
Astronomical Twilight 5:28 AM CST 7:15 PM CST
Moon 9:41 AM CST (2/15) 11:39 PM CST (2/15)
Length of Visible Light 11h 45m
Length of Day
10h 52m
Waxing Crescent, 30% of the Moon is Illuminated
Feb 15
Waxing Crescent
Feb 17
First Quarter
Feb 25
Full
Mar 4
Last Quarter
Mar 11
New

Hourly Weather History & Observations

Time (CST) Temp. Windchill Dew Point Humidity Pressure Visibility Wind Dir Wind Speed Gust Speed Precip Events Conditions
12:53 AM 44.1 °F 37.7 °F 28.0 °F 53% 30.10 in 10.0 mi NW 12.7 mph - N/A   Overcast
1:53 AM 42.1 °F 36.1 °F 28.9 °F 60% 30.11 in 10.0 mi NNW 10.4 mph - N/A   Mostly Cloudy
2:53 AM 39.0 °F 34.0 °F 28.0 °F 65% 30.12 in 10.0 mi NW 6.9 mph - N/A   Clear
3:53 AM 36.0 °F 31.1 °F 27.0 °F 70% 30.12 in 10.0 mi NW 5.8 mph - N/A   Clear
4:53 AM 36.0 °F 29.0 °F 27.0 °F 70% 30.15 in 10.0 mi NW 9.2 mph - N/A   Clear
5:53 AM 35.1 °F 30.1 °F 24.1 °F 64% 30.19 in 10.0 mi NW 5.8 mph - N/A   Clear
6:53 AM 32.0 °F 25.6 °F 23.0 °F 69% 30.20 in 10.0 mi NW 6.9 mph - N/A   Clear
7:53 AM 34.0 °F 27.2 °F 24.1 °F 67% 30.23 in 10.0 mi NW 8.1 mph - N/A   Clear
8:53 AM 37.0 °F 29.3 °F 26.1 °F 65% 30.25 in 10.0 mi NNW 11.5 mph - N/A   Partly Cloudy
9:53 AM 39.0 °F 30.6 °F 25.0 °F 57% 30.26 in 10.0 mi NW 15.0 mph 21.9 mph N/A   Partly Cloudy
10:53 AM 39.9 °F 31.4 °F 21.9 °F 49% 30.27 in 10.0 mi NW 16.1 mph 20.7 mph N/A   Partly Cloudy
11:53 AM 41.0 °F 37.1 °F 19.9 °F 43% 30.26 in 10.0 mi Variable 5.8 mph - N/A   Clear
12:53 PM 42.1 °F 36.6 °F 19.9 °F 41% 30.24 in 10.0 mi NW 9.2 mph 19.6 mph N/A   Partly Cloudy
1:53 PM 42.1 °F 35.2 °F 17.1 °F 37% 30.23 in 10.0 mi NNW 12.7 mph 20.7 mph N/A   Partly Cloudy
2:53 PM 42.1 °F 36.1 °F 14.0 °F 32% 30.22 in 10.0 mi NW 10.4 mph 19.6 mph N/A   Clear
3:53 PM 41.0 °F 33.9 °F 10.9 °F 29% 30.23 in 10.0 mi NNW 12.7 mph - N/A   Clear
4:53 PM 39.0 °F 32.3 °F 10.9 °F 32% 30.24 in 10.0 mi NW 10.4 mph 16.1 mph N/A   Clear
5:53 PM 35.1 °F 29.3 °F 10.0 °F 35% 30.25 in 10.0 mi NNW 6.9 mph - N/A   Clear
6:53 PM 32.0 °F 27.5 °F 10.9 °F 42% 30.27 in 10.0 mi NW 4.6 mph - N/A   Clear
7:53 PM 30.9 °F 25.2 °F 10.0 °F 42% 30.28 in 10.0 mi NW 5.8 mph - N/A   Clear
8:53 PM 30.0 °F 24.1 °F 10.0 °F 43% 30.27 in 10.0 mi NW 5.8 mph - N/A   Clear
9:53 PM 28.9 °F 22.8 °F 10.0 °F 45% 30.27 in 10.0 mi NW 5.8 mph - N/A   Clear
10:53 PM 27.0 °F 21.6 °F 10.0 °F 49% 30.27 in 10.0 mi NW 4.6 mph - N/A   Clear
11:53 PM 26.1 °F 20.5 °F 10.9 °F 53% 30.26 in 10.0 mi NW 4.6 mph - N/A   Clear